St. Joseph, KS

3:17 PM CST on December 06, 2019 (GMT -0600)
Rosecrans Memorial

Weather History for KSTJ - October, 2019

Change the Weather History Date:

Tuesday, October 1, 2019

  Actual Average Record
Temperature  
Mean Temperature 82 °F 60 °F  
Max Temperature 91 °F 73 °F 94 °F (1976)
Min Temperature 73 °F 48 °F 29 °F (1974)
Degree Days  
Heating Degree Days 0 6  
Month to date heating degree days 6  
Since 1 July heating degree days 86  
Cooling Degree Days 16 2  
Month to date cooling degree days 2  
Year to date cooling degree days 1201  
Growing Degree Days 32 (Base 50)    
Moisture  
Dew Point 70 °F    
Average Humidity 74    
Maximum Humidity 93    
Minimum Humidity 55    
Precipitation  
Precipitation 0.22 in 0.09 in 1.95 in (2014)
Month to date precipitation 0.09  
Year to date precipitation 29.81  
Sea Level Pressure  
Sea Level Pressure 29.84 in    
Wind  
Wind Speed 12 mph (SSW)    
Max Wind Speed 20 mph    
Max Gust Speed 30 mph    
Visibility 9 miles    
Events Rain , Thunderstorm    
T = Trace of Precipitation, MM = Missing Value Source: NWS Daily Summary

Daily Weather History Graph

Daily Weather History Graph

Search for Another Location

Airport or City:

Astronomy

Oct. 01, 2019 Rise Set
Actual Time 7:15 AM CDT 7:02 PM CDT
Civil Twilight 6:48 AM CDT 7:29 PM CDT
Nautical Twilight 6:17 AM CDT 8:00 PM CDT
Astronomical Twilight 5:45 AM CDT 8:31 PM CDT
Moon 10:32 AM CDT (10/1) 9:16 PM CDT (10/1)
Length of Visible Light 12h 40m
Length of Day
11h 46m
Waxing Crescent, 12% of the Moon is Illuminated
Oct 1
Waxing Crescent
Oct 5
First Quarter
Oct 13
Full
Oct 21
Last Quarter
Oct 27
New

Hourly Weather History & Observations

Time (CDT) Temp. Heat Index Dew Point Humidity Pressure Visibility Wind Dir Wind Speed Gust Speed Precip Events Conditions
12:53 AM 77.0 °F - 69.1 °F 76% 29.84 in 10.0 mi South 16.1 mph 25.3 mph N/A   Clear
1:53 AM 77.0 °F - 69.1 °F 76% 29.86 in 10.0 mi SSW 10.4 mph - N/A   Clear
2:53 AM 75.9 °F - 69.1 °F 79% 29.87 in 10.0 mi South 9.2 mph - N/A   Clear
3:53 AM 75.9 °F - 69.1 °F 79% 29.88 in 10.0 mi South 10.4 mph - N/A   Clear
4:53 AM 75.0 °F - 69.1 °F 82% 29.88 in 10.0 mi South 9.2 mph - N/A   Clear
5:53 AM 73.9 °F - 68.0 °F 82% 29.89 in 10.0 mi South 6.9 mph - N/A   Clear
6:53 AM 73.0 °F - 68.0 °F 84% 29.89 in 10.0 mi South 9.2 mph - N/A   Clear
7:53 AM 73.9 °F - 68.0 °F 82% 29.89 in 10.0 mi South 10.4 mph - N/A   Clear
8:53 AM 77.0 °F - 68.0 °F 74% 29.89 in 10.0 mi South 12.7 mph 19.6 mph N/A   Clear
9:53 AM 80.1 °F 82.9 °F 69.1 °F 69% 29.89 in 10.0 mi SSW 12.7 mph - N/A   Clear
10:53 AM 84.0 °F 88.4 °F 70.0 °F 63% 29.90 in 10.0 mi SSW 11.5 mph 21.9 mph N/A   Clear
11:53 AM 87.1 °F 93.6 °F 72.0 °F 61% 29.89 in 10.0 mi South 17.3 mph 24.2 mph N/A   Clear
12:53 PM 88.0 °F 93.8 °F 71.1 °F 57% 29.87 in 10.0 mi SSW 17.3 mph 27.6 mph 0.00 in Rain Light Rain
1:53 PM 90.0 °F 96.9 °F 72.0 °F 55% 29.83 in 10.0 mi SW 17.3 mph 25.3 mph 0.00 in Rain Light Rain
2:53 PM 89.1 °F 95.0 °F 71.1 °F 55% 29.80 in 10.0 mi South 19.6 mph 29.9 mph 0.00 in Rain Light Rain
3:53 PM 89.1 °F 95.0 °F 71.1 °F 55% 29.78 in 10.0 mi SSW 15.0 mph 28.8 mph 0.00 in Rain Light Rain
4:53 PM 87.1 °F 92.8 °F 71.1 °F 59% 29.78 in 10.0 mi South 16.1 mph 26.5 mph 0.00 in Rain Light Rain
5:53 PM 84.9 °F 89.4 °F 70.0 °F 61% 29.78 in 10.0 mi South 15.0 mph 24.2 mph 0.00 in Rain Light Rain
6:53 PM 82.9 °F 87.0 °F 70.0 °F 65% 29.78 in 10.0 mi South 11.5 mph - 0.00 in   Clear
7:53 PM 82.0 °F 85.9 °F 70.0 °F 67% 29.78 in 10.0 mi South 12.7 mph - N/A   Clear
8:16 PM 82.0 °F 85.5 °F 69.1 °F 65% 29.82 in 10.0 mi SSW 9.2 mph 19.6 mph N/A Thunderstorm Mostly Cloudy
8:39 PM 80.1 °F 83.2 °F 70.0 °F 71% 29.83 in 10.0 mi WSW 3.5 mph - 0.00 in   Overcast
8:53 PM 78.1 °F - 72.0 °F 81% 29.82 in 6.0 mi WNW 6.9 mph - 0.01 in Rain Light Rain
9:53 PM 75.0 °F - 72.0 °F 90% 29.83 in 9.0 mi SW 10.4 mph - 0.05 in Rain Light Rain
10:29 PM 73.9 °F - 72.0 °F 93% 29.85 in 2.5 mi SSW 13.8 mph 21.9 mph 0.08 in Rain Rain
10:38 PM 73.9 °F - 72.0 °F 93% 29.85 in 6.0 mi SW 10.4 mph 20.7 mph 0.09 in Rain Light Rain
10:53 PM 73.9 °F - 72.0 °F 93% 29.83 in 10.0 mi SSW 10.4 mph - 0.09 in   Mostly Cloudy
11:53 PM 73.0 °F - 71.1 °F 93% 29.84 in 5.0 mi SW 9.2 mph - 0.07 in Rain Light Rain